{"data":{"norad_id":62035,"epoch":"2026-09-21T08:16:54.684768Z","epoch_age_seconds":112513,"freshness":"FRESH","line1":"1 62035U 24216D   26264.34507737  .00013058  00000+0  48303-3 0  9994","line2":"2 62035  43.0010 238.7159 0001867 283.2768  76.7875 15.27591381103724","mean_motion":15.27591381,"eccentricity":0.0001867,"inclination_deg":43.001,"raan_deg":238.7159,"arg_perigee_deg":283.2768,"mean_anomaly_deg":76.7875,"bstar":0.00048303,"rev_number":10372,"period_min":94.266046398962,"perigee_km":481.73404036128,"apogee_km":484.2959945246,"semimajor_km":6861.1520174429,"source":"CELESTRAK","updated_at":"2026-09-22T09:00:49.486854Z"}}